Danbury, CT

7:42 AM EDT on August 25, 2016 (GMT -0400)
Danbury Municipal

Weather History for KDXR - March, 2012

Change the Weather History Date:

Saturday, March 3, 2012

  Actual Average Record
Temperature  
Mean Temperature 46 °F -  
Max Temperature 55 °F 43 °F 67 °F (1991)
Min Temperature 37 °F 25 °F 1 °F (2015)
Degree Days  
Heating Degree Days 19    
Moisture  
Dew Point 30 °F    
Average Humidity 54    
Maximum Humidity 96    
Minimum Humidity 24    
Precipitation  
Precipitation 0.20 in - - ()
Sea Level Pressure  
Sea Level Pressure 29.55 in    
Wind  
Wind Speed 6 mph (NNW)    
Max Wind Speed 16 mph    
Max Gust Speed 24 mph    
Visibility 6 miles    
Events Rain    
Averages and records for this station are not official NWS values.
T = Trace of Precipitation, MM = Missing Value Source: NWS Daily Summary

Daily Weather History Graph

Daily Weather History Graph

Search for Another Location

Airport or City:

Trip Planner

Search our weather history database for the weather conditions in past years. The results will help you decide how hot, cold, wet, or windy it might be!

Date:

Astronomy

Mar. 03, 2012 Rise Set
Actual Time 6:24 AM EST 5:47 PM EST
Civil Twilight 5:56 AM EST 6:15 PM EST
Nautical Twilight 5:24 AM EST 6:47 PM EST
Astronomical Twilight 4:52 AM EST 7:19 PM EST
Moon 12:52 PM EST (3/3) 3:02 AM EST (3/3)
Length of Visible Light 12h 18m
Length of Day
11h 22m
Waxing Gibbous, 75% of the Moon is Illuminated
Mar 3
Waxing Gibbous
Mar 8
Full
Mar 14
Last Quarter
Mar 22
New
Mar 30
First Quarter

Hourly Weather History & Observations

Time (EST) Temp. Windchill Dew Point Humidity Pressure Visibility Wind Dir Wind Speed Gust Speed Precip Events Conditions
12:53 AM 37.0 °F 32.4 °F - N/A% 29.81 in 4.0 mi Variable 5.8 mph - 0.03 in Rain Light Rain
1:53 AM 37.9 °F 32.7 °F - N/A% 29.76 in 4.0 mi East 6.9 mph - 0.02 in Rain Light Rain
2:53 AM 39.9 °F 34.5 °F - N/A% 29.70 in 7.0 mi ESE 8.1 mph - 0.02 in   Overcast
3:53 AM 39.9 °F 33.9 °F - N/A% 29.65 in 6.0 mi East 9.2 mph - 0.02 in Rain Light Rain
4:53 AM 41.0 °F 35.8 °F - N/A% 29.65 in 4.0 mi ENE 8.1 mph - 0.00 in Rain Light Rain
5:53 AM 41.0 °F 37.1 °F - N/A% 29.58 in 6.0 mi ENE 5.8 mph - 0.01 in   Haze
6:37 AM 41.0 °F 39.0 °F - N/A% 29.53 in 3.0 mi ENE 3.5 mph - N/A   Overcast
6:53 AM 41.0 °F 39.0 °F - N/A% 29.55 in 3.0 mi East 3.5 mph - N/A   Overcast
7:53 AM 41.0 °F 39.0 °F - N/A% 29.52 in 3.0 mi NNE 3.5 mph - 0.01 in   Overcast
7:58 AM 41.0 °F 38.0 °F - N/A% 29.52 in 1.0 mi NE 4.6 mph - N/A   Overcast
8:10 AM 41.0 °F 38.0 °F - N/A% 29.50 in 1.5 mi ENE 4.6 mph - 0.00 in   Overcast
8:53 AM 39.9 °F 37.8 °F - N/A% 29.52 in 1.5 mi NE 3.5 mph - 0.01 in   Overcast
9:00 AM 39.2 °F 35.9 °F - N/A% 29.50 in 2.0 mi ENE 4.6 mph - N/A   Overcast
9:53 AM 39.9 °F - - N/A% 29.51 in 4.0 mi Calm Calm - 0.03 in Rain Light Rain
10:42 AM 41.0 °F - - N/A% 29.49 in 4.0 mi Calm Calm - 0.03 in Rain Light Rain
10:53 AM 41.0 °F - - N/A% 29.50 in 3.0 mi Calm Calm - 0.04 in Rain Light Rain
11:48 AM 44.6 °F - 42.8 °F 93% 29.47 in 2.0 mi Calm Calm - 0.01 in   Overcast
11:53 AM 44.1 °F - 43.0 °F 96% 29.49 in 2.0 mi Calm Calm - 0.01 in   Overcast
12:53 PM 48.0 °F - 45.0 °F 89% 29.45 in 4.0 mi West 9.2 mph - N/A   Mostly Cloudy
1:01 PM 48.2 °F - 44.6 °F 87% 29.44 in 7.0 mi WSW 8.1 mph - N/A   Mostly Cloudy
1:53 PM 48.9 °F - 43.0 °F 80% 29.43 in 10.0 mi WSW 8.1 mph - N/A   Clear
2:53 PM 53.1 °F - 41.0 °F 64% 29.44 in 10.0 mi WSW 13.8 mph 19.6 mph N/A   Clear
3:53 PM 55.0 °F - 26.1 °F 33% 29.44 in 10.0 mi SW 16.1 mph 24.2 mph N/A   Clear
4:53 PM 54.0 °F - 28.0 °F 37% 29.46 in 10.0 mi WSW 9.2 mph - N/A   Clear
5:53 PM 52.0 °F - 26.1 °F 37% 29.51 in 10.0 mi West 6.9 mph - N/A   Clear
6:53 PM 51.1 °F - 15.1 °F 24% 29.56 in 10.0 mi WSW 9.2 mph 17.3 mph N/A   Clear
7:53 PM 48.9 °F - 15.1 °F 26% 29.58 in 10.0 mi West 8.1 mph 18.4 mph N/A   Clear
8:53 PM 48.0 °F - 19.0 °F 32% 29.61 in 10.0 mi West 9.2 mph 17.3 mph N/A   Clear
9:53 PM 45.0 °F 41.2 °F 19.9 °F 37% 29.65 in 10.0 mi Variable 6.9 mph - N/A   Clear
10:53 PM 44.1 °F 39.5 °F 19.0 °F 37% 29.66 in 10.0 mi West 8.1 mph - N/A   Clear
11:53 PM 42.1 °F 37.1 °F 19.9 °F 41% 29.66 in 10.0 mi West 8.1 mph 19.6 mph N/A   Clear